Location: Buckland
(65.9785°N, 161.1281°W)
Time: 14:06:35
(UTC+00:00)

Transit 4A - Pass Details

Date: 11 October 2022
Orbit: 871 x 972 km, 66.8° (Epoch: 29 November)

Event Time Altitude Azimuth Distance (km) Brightness Sun altitude
Exits shadow 15:17:25 13° 293° (WNW) 2,373 9.6 -14.0°
Maximum altitude 15:21:58 32° 236° (SW) 1,470 8.5 -13.5°
Drops below altitude 10° 15:27:03 10° 175° (S) 2,523 10.1 -13.0°
Sets 15:29:44 0° 166° (SSE) 3,456 10.9 -12.8°
